Location: Unspecified
(52.4292°N, 19.3359°E)
Time: 00:24:37
(UTC+02:00)

Transit 2A Rocket - Pass Details

Date: 28 May 2024
Orbit: 583 x 910 km, 66.7° (Epoch: 12 June)

Event Time Altitude Azimuth Distance (km) Brightness Sun altitude
Rises 04:31:32 0° 236° (WSW) 3,055 - -0.6°
Exits shadow 04:31:45 - 237° (WSW) 2,974 7.3 -0.6°
Reaches altitude 10° 04:33:49 10° 242° (WSW) 2,191 6.7 -0.3°
Maximum altitude 04:38:43 52° 319° (NW) 954 5.6 0.3°
Drops below altitude 10° 04:44:08 10° 35° (NE) 2,418 9.2 0.9°
Sets 04:46:46 0° 40° (NE) 3,403 10.3 1.3°
